Location: Archemont
(49.1579°N, 1.7598°E)
Time: 09:32:19
(UTC+00:00)

Vanguard 1 Rocket - Pass Details

Date: 23 April 2024
Orbit: 650 x 4220 km, 34.3° (Epoch: 29 May)

Event Time Altitude Azimuth Distance (km) Brightness Sun altitude
Rises 22:32:36 0° 255° (WSW) 3,933 10.7 -25.5°
Reaches altitude 10° 22:35:56 10° 237° (WSW) 3,384 10.2 -25.7°
Enters shadow 22:38:32 16° 218° (SW) 3,260 9.9 -25.9°
